Powrót do katalogu

SDA_1675

AktywnyMilitariaPO
NORAD 65985·PAYLOAD·🇺🇸 United States

Wystrzelony Oct 15, 2025 z Vandenberg Space Force Base

Loading…

Następne Przeloty (najbliższe 24 godziny)

TLE

ŚwieżeSource: Space-Track

Epoka: Sep 14, 2026, 14:32 UTC

1 65985U 25230M   26257.60563261  .00000138  00000-0  11236-3 0  9994
2 65985  81.2973 128.7797 0002065 292.5884  67.5055 13.84769451 46182

Śledź SDA_1675 w czasie rzeczywistym z AllMySat

Download on the App Store